Date,TemperatureHighF,TemperatureAvgF,TemperatureLowF,DewpointHighF,DewpointAvgF,DewpointLowF,HumidityHigh,HumidityAvg,HumidityLow,PressureMaxIn,PressureMinIn,WindSpeedMaxMPH,WindSpeedAvgMPH,GustSpeedMaxMPH,PrecipitationSumIn
2013-6-1,70.9,54.4,36.5,45.9,36.7,31.7,86,56,26,30.09,29.85,22,7,22,0.00
2013-6-2,69.1,53.2,46.1,48.4,42.5,36.5,88,68,40,29.86,29.68,23,5,23,0.44
2013-6-3,57.4,46.8,42.1,46.4,40.4,37.4,93,79,53,29.93,29.69,31,12,31,0.19
2013-6-4,59.8,47.8,38.9,41.0,37.0,33.5,89,68,43,30.03,29.93,18,9,20,0.01
2013-6-5,84.2,58.5,36.2,49.3,41.2,31.0,86,57,28,30.01,29.83,14,5,14,0.00
2013-6-6,88.2,65.5,47.7,49.9,44.9,39.4,79,51,25,29.93,29.82,13,4,13,0.00
2013-6-7,81.7,64.8,50.2,53.7,46.7,40.3,78,54,32,29.83,29.63,36,7,36,0.00
2013-6-8,77.2,65.9,51.5,45.8,36.2,24.2,69,37,16,29.82,29.74,28,10,35,0.00
2013-6-9,82.8,66.8,52.2,45.6,35.8,23.5,57,35,14,29.83,29.61,27,10,27,0.00
2013-6-10,80.8,65.8,50.2,41.8,33.0,19.8,47,30,21,29.74,29.60,15,5,16,0.00
2013-6-11,68.2,58.8,51.7,52.6,46.1,38.9,88,64,40,29.87,29.64,26,11,26,0.07
2013-6-12,82.3,59.8,46.4,54.4,49.6,42.9,89,72,34,29.89,29.70,26,8,26,0.16
2013-6-13,56.9,53.1,47.7,52.2,45.0,35.9,91,74,56,29.87,29.74,30,12,30,0.07
2013-6-14,64.3,53.4,41.8,42.2,35.0,26.7,89,54,25,29.93,29.82,26,8,26,0.00
2013-6-15,88.2,60.3,41.0,42.8,35.5,30.3,71,44,15,29.94,29.81,15,5,15,0.00
2013-6-16,77.4,63.5,50.4,48.8,38.6,31.0,62,41,25,29.95,29.87,14,7,14,0.00
2013-6-17,80.5,64.8,51.8,51.5,45.4,40.2,72,52,28,29.94,29.77,27,6,27,0.06
2013-6-18,93.4,76.2,55.6,52.8,46.5,35.8,74,39,15,29.80,29.54,21,10,21,0.00
2013-6-19,73.1,59.1,47.9,55.6,48.4,39.4,85,68,50,29.70,29.46,34,11,34,0.35
2013-6-20,66.8,53.2,45.7,45.7,39.5,34.2,76,61,37,29.87,29.61,23,8,23,0.02
2013-6-21,67.7,52.6,44.1,46.5,40.8,37.4,82,65,39,29.87,29.82,24,8,24,0.16
2013-6-22,66.1,53.3,47.0,51.0,43.9,37.5,87,71,53,29.86,29.80,20,7,20,0.08
2013-6-23,77.0,58.7,40.0,51.9,43.7,36.1,91,62,30,29.82,29.60,14,4,14,0.00
2013-6-24,79.4,62.9,54.9,53.7,47.9,40.5,84,59,35,29.61,29.49,32,6,34,0.09
2013-6-25,80.1,62.8,51.5,54.8,48.5,42.9,89,63,29,29.76,29.59,19,5,19,0.01
2013-6-26,74.3,63.3,55.1,52.2,48.5,45.8,78,60,40,29.95,29.75,24,5,24,0.00
2013-6-27,89.5,69.7,54.5,57.0,49.7,45.7,76,51,26,30.06,29.95,14,4,14,0.00
2013-6-28,95.0,76.8,58.1,54.5,49.2,43.0,61,41,21,30.11,29.99,16,5,16,0.00
2013-6-29,91.4,73.3,60.8,58.9,52.7,44.9,69,50,25,30.03,29.92,30,6,30,0.00
2013-6-30,91.3,73.4,53.8,57.9,52.9,46.6,81,52,26,29.99,29.92,20,4,20,0.00